Location: Newark
(31.5350°N, 35.0986°E)
Time: 15:46:30
(UTC+00:00)

SR - All Passes

Search period start: 18 October 2019 00:00
Search period end: 28 October 2019 00:00
Orbit: 575 x 881 km, 66.7° (Epoch: 17 October)

Date Brightness Start Highest point End Pass type
(mag) Time Alt. Az. Time Alt. Az. Time Alt. Az.
18 Oct - 05:28:16 10° NNW 05:34:12 70° ENE 05:39:59 10° SSE daylight
18 Oct - 07:12:49 10° WNW 07:15:38 14° WSW 07:18:25 10° SW daylight
18 Oct - 18:15:30 10° ESE 18:16:43 11° ESE 18:17:57 10° E night (unlit)
18 Oct - 19:53:17 10° SW 19:57:59 61° WNW 20:03:10 10° NNE night (unlit)
19 Oct - 04:39:01 10° N 04:44:24 35° ENE 04:49:42 10° ESE daylight
19 Oct - 06:21:19 10° NW 06:26:22 30° WSW 06:31:17 10° SSW daylight
19 Oct - 19:03:45 10° S 19:08:23 58° ESE 19:13:29 10° NNE night (unlit)
19 Oct - 20:48:07 10° W 20:50:57 15° NW 20:53:55 10° NNW night (unlit)
20 Oct - 03:50:20 10° N 03:54:23 19° NE 03:58:23 10° E daylight
20 Oct - 05:31:04 10° NNW 05:36:56 62° WSW 05:42:37 10° SSE daylight
20 Oct - 18:15:11 10° SSE 18:19:02 25° ESE 18:23:09 10° NE night (unlit)
20 Oct - 19:56:38 10° WSW 20:00:53 30° WNW 20:05:30 10° N night (unlit)
21 Oct - 04:41:23 10° NNW 04:47:18 66° ENE 04:53:03 10° SE daylight
21 Oct - 06:25:39 10° WNW 06:28:46 15° WSW 06:31:51 10° SW daylight
21 Oct - 19:06:19 10° SW 19:11:03 66° WNW 19:16:18 10° NNE night (unlit)
22 Oct - 03:52:11 10° N 03:57:29 33° ENE 04:02:41 10° ESE daylight
22 Oct - 05:34:20 10° NW 05:39:30 32° WSW 05:44:31 10° SSW daylight
22 Oct - 18:16:51 10° S 18:21:29 54° ESE 18:26:34 10° NE night (unlit)
22 Oct - 20:00:55 10° W 20:03:59 16° NW 20:07:13 10° NNW night (unlit)
23 Oct - 03:03:34 10° N 03:07:27 18° NE 03:11:16 10° E visible
23 Oct - 04:44:10 10° NNW 04:50:03 67° WSW 04:55:45 10° SSE daylight
23 Oct - 17:28:23 10° SSE 17:32:08 23° ESE 17:36:08 10° NE night (unlit)
23 Oct - 19:09:34 10° WSW 19:13:56 32° WNW 19:18:41 10° N night (unlit)
24 Oct - 03:54:31 10° NNW 04:00:25 61° ENE 04:06:07 10° SE daylight
24 Oct - 05:38:31 10° WNW 05:41:55 16° WSW 05:45:15 10° SW daylight
24 Oct - 18:19:21 10° SSW 18:24:07 71° WNW 18:29:26 10° NNE night (unlit)
25 Oct - 03:05:20 10° N 03:10:33 31° ENE 03:15:40 10° ESE visible
25 Oct - 04:47:23 10° NW 04:52:37 34° WSW 04:57:42 10° S daylight
25 Oct - 17:29:58 10° S 17:34:34 50° ESE 17:39:39 10° NE night (unlit)
25 Oct - 19:13:44 10° W 19:17:02 17° NW 19:20:30 10° N night (unlit)
26 Oct - 02:16:49 10° NNE 02:20:30 17° NE 02:24:07 10° E visible
26 Oct - 03:57:15 10° NNW 04:03:10 71° WSW 04:08:52 10° SSE daylight
26 Oct - 16:41:37 10° SSE 16:45:15 22° ESE 16:49:08 10° NE visible
26 Oct - 18:22:32 10° WSW 18:27:00 34° WNW 18:31:51 10° N night (unlit)
27 Oct - 03:07:38 10° NNW 03:13:30 58° ENE 03:19:10 10° SE visible
27 Oct - 04:51:25 10° WNW 04:55:03 17° WSW 04:58:36 10° SW daylight
27 Oct - 17:32:23 10° SSW 17:37:12 76° WNW 17:42:33 10° NNE visible
